ELY386 LIRF-LLBG

Flight info

Callsign ELY386
Flight time N/A
Altitude 37000
Route ROTUN DCT ENSOT DCT PEVIR DCT AGNIS DCT CRN DCT RUTOM DCT TRL DCT VANZA DCT PIKOG L609 ZUKKO
Aircraft B738/M-SDE2E3FGHIJ1LORVWXY/LB1

Departure

Time 2026-05-06 11:18
Airport Rome–Fiumicino Leonardo da Vinci International Airport (LIRF)

Arrival

Time N/A
Airport Ben Gurion International Airport (LLBG)
Time Latitude Longitude Altitude Speed Heading
2026-05-06 10:58 41.79838 12.24659 13 ft 0 kts 159°
2026-05-06 11:06 41.79863 12.24647 16 ft 4 kts 161°
2026-05-06 11:07 41.79892 12.24634 16 ft 4 kts 158°
2026-05-06 11:07 41.79901 12.24621 14 ft 2 kts 129°
2026-05-06 11:07 41.79907 12.24608 15 ft 2 kts 109°
2026-05-06 11:07 41.79912 12.24594 14 ft 2 kts 101°
2026-05-06 11:08 41.79915 12.24579 14 ft 2 kts 102°
2026-05-06 11:08 41.79918 12.24564 15 ft 2 kts 101°
2026-05-06 11:08 41.79921 12.24549 15 ft 2 kts 95°
2026-05-06 11:08 41.79922 12.24534 16 ft 2 kts 88°
2026-05-06 11:09 41.79922 12.24519 15 ft 2 kts 76°
2026-05-06 11:09 41.79921 12.24514 15 ft 0 kts 75°
2026-05-06 11:11 41.79925 12.24527 16 ft 4 kts 70°
2026-05-06 11:11 41.79945 12.24600 15 ft 12 kts 69°
2026-05-06 11:11 41.79978 12.24721 15 ft 14 kts 70°
2026-05-06 11:12 41.80045 12.24788 15 ft 13 kts 354°
2026-05-06 11:12 41.80135 12.24774 14 ft 13 kts
2026-05-06 11:12 41.80189 12.24854 18 ft 13 kts 66°
2026-05-06 11:12 41.80206 12.25014 19 ft 22 kts 89°
2026-05-06 11:13 41.80243 12.25206 18 ft 21 kts 70°
2026-05-06 11:13 41.80292 12.25387 18 ft 20 kts 70°
2026-05-06 11:13 41.80342 12.25562 15 ft 20 kts 70°
2026-05-06 11:13 41.80399 12.25771 14 ft 27 kts 70°
2026-05-06 11:14 41.80464 12.26010 16 ft 28 kts 70°
2026-05-06 11:14 41.80530 12.26247 14 ft 26 kts 70°
2026-05-06 11:14 41.80592 12.26468 16 ft 25 kts 70°
2026-05-06 11:14 41.80648 12.26677 16 ft 23 kts 70°
2026-05-06 11:15 41.80702 12.26875 10 ft 22 kts 70°
2026-05-06 11:15 41.80750 12.27035 10 ft 13 kts 52°
2026-05-06 11:15 41.80835 12.27027 11 ft 13 kts 339°
2026-05-06 11:15 41.80913 12.26989 10 ft 7 kts 340°
2026-05-06 11:16 41.80956 12.26963 10 ft 7 kts 318°
2026-05-06 11:16 41.80956 12.26915 11 ft 1 kts 248°
2026-05-06 11:16 41.80956 12.26913 11 ft 0 kts 248°
2026-05-06 11:17 41.80924 12.26799 10 ft 46 kts 250°
2026-05-06 11:17 41.80718 12.26058 20 ft 121 kts 249°
2026-05-06 11:18 41.80340 12.24739 23 ft 183 kts 248°
2026-05-06 11:18 41.79907 12.22939 382 ft 213 kts 248°
2026-05-06 11:18 41.79510 12.20942 980 ft 229 kts 254°
2026-05-06 11:18 41.79314 12.18895 2244 ft 199 kts 259°
2026-05-06 11:19 41.79203 12.17154 3389 ft 193 kts 261°
2026-05-06 11:19 41.78938 12.15242 3337 ft 223 kts 246°
2026-05-06 11:19 41.78117 12.13490 3791 ft 222 kts 225°
2026-05-06 11:19 41.76953 12.12082 4177 ft 233 kts 221°
2026-05-06 11:20 41.75718 12.10638 4609 ft 237 kts 221°
2026-05-06 11:20 41.74471 12.09185 5142 ft 240 kts 223°
2026-05-06 11:20 41.73187 12.07654 5482 ft 252 kts 220°
2026-05-06 11:20 41.71618 12.06601 6039 ft 263 kts 194°
2026-05-06 11:21 41.69767 12.06618 6749 ft 274 kts 168°
2026-05-06 11:21 41.68063 12.07814 7428 ft 285 kts 143°
2026-05-06 11:21 41.66622 12.09671 8112 ft 290 kts 138°
2026-05-06 11:21 41.65226 12.11645 8783 ft 294 kts 137°
2026-05-06 11:22 41.63830 12.13661 9496 ft 297 kts 136°
2026-05-06 11:22 41.62420 12.15700 10168 ft 300 kts 136°
2026-05-06 11:22 41.60986 12.17762 10809 ft 303 kts 136°
2026-05-06 11:22 41.59540 12.19828 11446 ft 306 kts 137°
2026-05-06 11:23 41.58080 12.21906 12089 ft 308 kts 137°
2026-05-06 11:23 41.56602 12.24001 12723 ft 311 kts 137°
2026-05-06 11:23 41.55105 12.26116 13354 ft 314 kts 137°
2026-05-06 11:23 41.53593 12.28244 13686 ft 329 kts 137°
2026-05-06 11:24 41.51968 12.30523 13839 ft 348 kts 137°
2026-05-06 11:24 41.50258 12.32919 13983 ft 366 kts 137°
2026-05-06 11:24 41.48476 12.35418 14333 ft 375 kts 136°
2026-05-06 11:24 41.46670 12.37952 14875 ft 378 kts 137°
2026-05-06 11:25 41.44852 12.40504 15465 ft 380 kts 137°
2026-05-06 11:25 41.43024 12.43066 16024 ft 382 kts 137°
2026-05-06 11:25 41.41179 12.45648 16560 ft 386 kts 137°
2026-05-06 11:25 41.39319 12.48247 17090 ft 389 kts 137°
2026-05-06 11:26 41.37462 12.50838 17596 ft 392 kts 137°
2026-05-06 11:26 41.35574 12.53469 18136 ft 395 kts 137°
2026-05-06 11:26 41.33669 12.56122 18602 ft 398 kts 137°
2026-05-06 11:26 41.31741 12.58804 19042 ft 402 kts 137°
2026-05-06 11:27 41.29802 12.61500 19481 ft 405 kts 137°
2026-05-06 11:27 41.27838 12.64227 19924 ft 408 kts 137°
2026-05-06 11:27 41.25874 12.66952 20354 ft 411 kts 137°
2026-05-06 11:27 41.23902 12.69685 20785 ft 414 kts 137°
2026-05-06 11:28 41.21903 12.72454 21208 ft 417 kts 138°
2026-05-06 11:28 41.19856 12.75287 21626 ft 420 kts 138°
2026-05-06 11:28 41.17854 12.78052 22015 ft 423 kts 138°
2026-05-06 11:28 41.15806 12.80880 22419 ft 426 kts 138°
2026-05-06 11:29 41.13749 12.83718 22815 ft 429 kts 138°
2026-05-06 11:29 41.11669 12.86585 23188 ft 432 kts 139°
2026-05-06 11:29 41.09572 12.89471 23553 ft 435 kts 139°
2026-05-06 11:29 41.07460 12.92376 23871 ft 438 kts 139°
2026-05-06 11:30 41.05338 12.95293 24202 ft 440 kts 139°
2026-05-06 11:30 41.03213 12.98211 24526 ft 442 kts 139°
2026-05-06 11:30 41.01099 13.01110 24840 ft 444 kts 139°
2026-05-06 11:30 40.98947 13.04059 25154 ft 446 kts 139°
2026-05-06 11:31 40.96782 13.07022 25473 ft 448 kts 139°
2026-05-06 11:31 40.94610 13.09993 25781 ft 450 kts 140°
2026-05-06 11:31 40.92428 13.12973 26089 ft 452 kts 140°
2026-05-06 11:31 40.90235 13.15966 26393 ft 453 kts 140°
2026-05-06 11:32 40.88034 13.18967 26705 ft 455 kts 140°
2026-05-06 11:32 40.85832 13.21966 26994 ft 456 kts 140°
2026-05-06 11:32 40.83626 13.24967 27278 ft 458 kts 140°
2026-05-06 11:32 40.81416 13.27970 27551 ft 460 kts 140°
2026-05-06 11:33 40.79198 13.30982 27823 ft 461 kts 140°
2026-05-06 11:33 40.76953 13.34027 28095 ft 463 kts 140°
2026-05-06 11:33 40.74691 13.37091 28351 ft 465 kts 140°
2026-05-06 11:33 40.72427 13.40155 28610 ft 467 kts 140°
2026-05-06 11:34 40.70169 13.43208 28855 ft 469 kts 140°
2026-05-06 11:34 40.67873 13.46309 29077 ft 470 kts 140°
2026-05-06 11:34 40.65587 13.49393 29308 ft 472 kts 140°
2026-05-06 11:34 40.63320 13.52449 29534 ft 474 kts 140°
2026-05-06 11:35 40.61002 13.55569 29749 ft 476 kts 140°
2026-05-06 11:35 40.58690 13.58679 29961 ft 478 kts 140°
2026-05-06 11:35 40.56361 13.61809 30162 ft 479 kts 140°
2026-05-06 11:35 40.54029 13.64940 30405 ft 479 kts 140°
2026-05-06 11:36 40.51699 13.68067 30701 ft 478 kts 140°
2026-05-06 11:36 40.49363 13.71197 30973 ft 477 kts 140°
2026-05-06 11:36 40.47050 13.74293 31199 ft 478 kts 140°
2026-05-06 11:36 40.44712 13.77417 31427 ft 478 kts 140°
2026-05-06 11:37 40.42374 13.80539 31680 ft 478 kts 140°
2026-05-06 11:37 40.40045 13.83646 31925 ft 477 kts 140°
2026-05-06 11:37 40.37709 13.86758 32144 ft 478 kts 140°
2026-05-06 11:37 40.35377 13.89863 32385 ft 478 kts 140°
2026-05-06 11:38 40.33054 13.92954 32627 ft 477 kts 140°
2026-05-06 11:38 40.30699 13.96082 32850 ft 477 kts 140°
2026-05-06 11:38 40.29155 13.98131 32999 ft 477 kts 140°
2026-05-06 11:38 40.26195 14.02373 33306 ft 480 kts 134°
2026-05-06 11:39 40.24073 14.05761 33542 ft 480 kts 133°
2026-05-06 11:39 40.22685 14.08040 33680 ft 481 kts 133°
2026-05-06 11:39 40.20604 14.11485 33884 ft 481 kts 133°
2026-05-06 11:39 40.17838 14.16039 34163 ft 480 kts 133°
2026-05-06 11:40 40.15769 14.19408 34386 ft 478 kts 133°
2026-05-06 11:40 40.14368 14.21674 34537 ft 477 kts 133°
2026-05-06 11:40 40.12251 14.25080 34735 ft 477 kts 133°
2026-05-06 11:40 40.10160 14.28430 34929 ft 476 kts 133°
2026-05-06 11:41 40.08105 14.31716 35140 ft 474 kts 133°
2026-05-06 11:41 40.06015 14.35055 35336 ft 473 kts 133°
2026-05-06 11:41 40.03929 14.38384 35503 ft 473 kts 133°
2026-05-06 11:41 40.01843 14.41710 35697 ft 472 kts 133°
2026-05-06 11:42 39.99779 14.45000 35904 ft 470 kts 133°
2026-05-06 11:42 39.97700 14.48312 36093 ft 469 kts 133°
2026-05-06 11:42 39.95633 14.51599 36244 ft 469 kts 133°
2026-05-06 11:42 39.93554 14.54904 36403 ft 468 kts 133°
2026-05-06 11:43 39.91510 14.58148 36581 ft 467 kts 133°
2026-05-06 11:43 39.89425 14.61455 36751 ft 466 kts 133°
2026-05-06 11:43 39.87379 14.64697 36890 ft 466 kts 133°
2026-05-06 11:44 39.83249 14.71230 37018 ft 468 kts 133°
2026-05-06 11:44 39.81233 14.74600 37013 ft 471 kts 127°
2026-05-06 11:44 39.78279 14.82142 37038 ft 474 kts 116°
2026-05-06 11:45 39.75701 14.90056 37024 ft 474 kts 115°
2026-05-06 11:45 39.73110 14.97949 37029 ft 474 kts 116°
2026-05-06 11:46 39.70482 15.05796 37020 ft 472 kts 116°
2026-05-06 11:46 39.67861 15.13542 37019 ft 470 kts 117°
2026-05-06 11:47 39.65220 15.21319 37019 ft 468 kts 117°
2026-05-06 11:47 39.62602 15.29009 37019 ft 466 kts 117°
2026-05-06 11:48 39.59980 15.36695 37026 ft 464 kts 117°
2026-05-06 11:48 39.57370 15.44326 37018 ft 463 kts 117°
2026-05-06 11:49 39.54773 15.51899 37024 ft 462 kts 117°
2026-05-06 11:49 39.52166 15.59482 37028 ft 461 kts 117°
2026-05-06 11:50 39.49550 15.67071 37035 ft 461 kts 117°
2026-05-06 11:50 39.46937 15.74628 37034 ft 462 kts 117°
2026-05-06 11:51 39.44278 15.82300 37033 ft 463 kts 117°
2026-05-06 11:51 39.41655 15.89849 37032 ft 464 kts 117°
2026-05-06 11:52 39.38989 15.97502 37037 ft 465 kts 117°
2026-05-06 11:52 39.36333 16.05103 37048 ft 469 kts 117°
2026-05-06 11:53 39.33622 16.12843 37029 ft 474 kts 117°
2026-05-06 11:53 39.30889 16.20626 37040 ft 477 kts 117°
2026-05-06 11:54 39.28147 16.28412 37047 ft 480 kts 117°
2026-05-06 11:54 39.25368 16.36286 37045 ft 482 kts 117°
2026-05-06 11:55 39.22575 16.44178 37046 ft 484 kts 117°
2026-05-06 11:55 39.19791 16.52022 37056 ft 485 kts 117°
2026-05-06 11:56 39.16946 16.60015 37051 ft 485 kts 117°
2026-05-06 11:56 39.14144 16.67868 37059 ft 485 kts 117°
2026-05-06 11:57 39.11319 16.75765 37067 ft 485 kts 117°
2026-05-06 11:57 39.08489 16.83652 37065 ft 485 kts 117°
2026-05-06 11:58 39.05657 16.91525 37074 ft 485 kts 117°
2026-05-06 11:58 39.02815 16.99409 37077 ft 485 kts 117°
2026-05-06 11:59 38.99986 17.07239 37074 ft 485 kts 116°
2026-05-06 11:59 38.97715 17.15411 37079 ft 487 kts 109°
2026-05-06 12:00 38.95790 17.23747 37078 ft 487 kts 108°
2026-05-06 12:00 38.93846 17.32111 37075 ft 488 kts 109°
2026-05-06 12:01 38.91847 17.40453 37075 ft 488 kts 109°
2026-05-06 12:01 38.89844 17.48683 37074 ft 488 kts 109°
2026-05-06 12:02 38.87794 17.57067 37078 ft 488 kts 109°
2026-05-06 12:02 38.85760 17.65364 37083 ft 488 kts 109°
2026-05-06 12:03 38.83730 17.73623 37089 ft 488 kts 109°
2026-05-06 12:03 38.81678 17.81944 37083 ft 488 kts 109°
2026-05-06 12:04 38.79621 17.90255 37089 ft 488 kts 109°
2026-05-06 12:04 38.77567 17.98528 37099 ft 488 kts 109°
2026-05-06 12:05 38.75492 18.06855 37092 ft 487 kts 109°
2026-05-06 12:05 38.73442 18.15054 37099 ft 486 kts 109°
2026-05-06 12:06 38.71369 18.23318 37101 ft 486 kts 109°
2026-05-06 12:06 38.69287 18.31587 37103 ft 486 kts 109°
2026-05-06 12:07 38.67204 18.39836 37105 ft 486 kts 109°
2026-05-06 12:07 38.65131 18.48015 37106 ft 486 kts 109°
2026-05-06 12:08 38.63052 18.56196 37112 ft 486 kts 109°
2026-05-06 12:08 38.60950 18.64435 37115 ft 487 kts 109°
2026-05-06 12:09 38.58845 18.72661 37113 ft 487 kts 109°
2026-05-06 12:09 38.56723 18.80923 37113 ft 487 kts 109°
2026-05-06 12:10 38.54622 18.89081 37110 ft 487 kts 109°
2026-05-06 12:10 38.52494 18.97320 37117 ft 488 kts 109°
2026-05-06 12:11 38.50188 19.05513 37114 ft 487 kts 113°
2026-05-06 12:11 38.47644 19.13456 37120 ft 488 kts 114°
2026-05-06 12:12 38.45044 19.21461 37121 ft 488 kts 114°
2026-05-06 12:12 38.42455 19.29532 37119 ft 488 kts 113°
2026-05-06 12:13 38.39904 19.37538 37125 ft 488 kts 113°
2026-05-06 12:13 38.37343 19.45573 37122 ft 489 kts 113°
2026-05-06 12:14 38.34774 19.53605 37126 ft 489 kts 114°
2026-05-06 12:14 38.32230 19.61533 37120 ft 489 kts 114°
2026-05-06 12:15 38.29629 19.69614 37122 ft 489 kts 114°
2026-05-06 12:15 38.27042 19.77629 37128 ft 490 kts 114°
2026-05-06 12:16 38.24449 19.85640 37130 ft 490 kts 114°
2026-05-06 12:16 38.21849 19.93650 37121 ft 490 kts 114°
2026-05-06 12:17 38.19244 20.01651 37130 ft 490 kts 114°
2026-05-06 12:17 38.16633 20.09651 37128 ft 490 kts 114°
2026-05-06 12:18 38.14015 20.17646 37126 ft 490 kts 114°
2026-05-06 12:18 38.11390 20.25642 37133 ft 490 kts 114°
2026-05-06 12:19 38.08777 20.33581 37130 ft 490 kts 114°
2026-05-06 12:19 38.06136 20.41581 37132 ft 490 kts 114°
2026-05-06 12:20 38.03499 20.49549 37131 ft 490 kts 114°
2026-05-06 12:20 38.00853 20.57520 37143 ft 491 kts 114°
2026-05-06 12:21 37.98195 20.65507 37122 ft 491 kts 114°
2026-05-06 12:21 37.95549 20.73434 37128 ft 491 kts 114°
2026-05-06 12:22 37.92882 20.81404 37131 ft 491 kts 114°
2026-05-06 12:22 37.90210 20.89367 37132 ft 491 kts 114°
2026-05-06 12:23 37.87533 20.97322 37130 ft 491 kts 114°
2026-05-06 12:23 37.84846 21.05287 37126 ft 492 kts 114°
2026-05-06 12:24 37.82154 21.13242 37130 ft 492 kts 114°
2026-05-06 12:24 37.79452 21.21209 37125 ft 492 kts 114°
2026-05-06 12:25 37.76759 21.29126 37126 ft 492 kts 114°
2026-05-06 12:25 37.74051 21.37062 37129 ft 493 kts 114°
2026-05-06 12:26 37.71333 21.45012 37122 ft 493 kts 114°
2026-05-06 12:26 37.69064 21.51630 37123 ft 494 kts 114°
2026-05-06 12:27 37.66318 21.59619 37119 ft 494 kts 114°
2026-05-06 12:27 37.63139 21.68840 37113 ft 494 kts 114°
2026-05-06 12:28 37.60845 21.75478 37111 ft 494 kts 114°
2026-05-06 12:28 37.58090 21.83431 37113 ft 494 kts 114°
2026-05-06 12:29 37.55333 21.91365 37106 ft 494 kts 114°
2026-05-06 12:29 37.52568 21.99304 37105 ft 494 kts 114°
2026-05-06 12:30 37.49801 22.07228 37100 ft 495 kts 114°
2026-05-06 12:30 37.47046 22.15097 37101 ft 495 kts 114°
2026-05-06 12:31 37.44255 22.23047 37090 ft 496 kts 114°
2026-05-06 12:31 37.41463 22.30983 37082 ft 496 kts 114°
2026-05-06 12:32 37.38776 22.38985 37085 ft 497 kts 111°
2026-05-06 12:32 37.36329 22.47115 37083 ft 497 kts 110°
2026-05-06 12:33 37.33911 22.55258 37074 ft 497 kts 110°
2026-05-06 12:33 37.31473 22.63336 37078 ft 497 kts 111°